Location: Cañada de la Miga
(34.7595°N, 106.2317°W)
Time: 16:28:05
(UTC+00:00)

Transit 4A - Pass Details

Date: 16 December 2021
Orbit: 864 x 981 km, 66.8° (Epoch: 18 January)

Event Time Altitude Azimuth Distance (km) Brightness Sun altitude
Rises 01:07:49 0° 261° (W) 3,473 12.7 -14.5°
Reaches altitude 10° 01:11:49 10° 288° (WNW) 2,561 11.0 -15.3°
Maximum altitude 01:14:32 13° 315° (NW) 2,353 10.3 -15.8°
Drops below altitude 10° 01:17:18 10° 343° (NNW) 2,601 10.2 -16.3°
Sets 01:21:27 0° 10° (N) 3,577 10.7 -17.1°
